Terminal Aerodrome Forecast
Issued by NWS

Home | Current Version | Previous Version | Graphics & Text | Print | Product List | Glossary On
Versions: 1 2 3 4 5 6 7 8 9 10 11 12 13
000
FTUS42 KMHX 100500
TAFOAJ
TAF
KOAJ 100533Z 1006/1106 19004KT P6SM FEW010 SCT080
     FM101200 21007KT P6SM VCTS BKN035CB
      AMD LTD TO CLD VIS AND WIND=

USA.gov is the U.S. government's official web portal to all federal, state and local government web resources and services.